Other Public Products
Issued by NWS Grand Forks, ND

Home | Current Version | Previous Version | Graphics & Text | Print | Product List | Glossary On
Versions: 1 2 3 4 5 6 7 8 9 10 11 12 13 14 15 16 17 18 19 20 21 22 23 24 25 26 27 28 29 30 31 32 33 34 35 36 37 38 39 40 41 42 43 44 45 46 47 48 49 50
000
FPUS83 KFGF 202110
OPUFGF
PRAIRIE TO PINES WEATHER ROUNDUP
NATIONAL WEATHER SERVICE EASTERN NORTH DAKOTA/GRAND FORKS ND
300 PM CST SAT DEC 20 2014

 **SATELLITE DATA USED TO AUGMENT SKY COVER AT AUTOMATED STATIONS**
 *****  WEATHER ACROSS EASTERN NORTH DAKOTA  *****

CITY           SKY/WX    TMP DP  RH WIND       PRES   REMARKS
GRAND FORKS    FOG       28  27  96 S12       29.94F VSB 1   WCI  18
GRAND FORKS AF CLOUDY    28  28 100 S10       29.94S FOG     WCI  18
GRAND CITY NWS   N/A     28 N/A N/A S14         N/A  WCI  17
BUXTON         NOT AVBL
DEVILS LAKE    CLOUDY    25  18  74 SE8       29.85S VSB 3/4 WCI  16
FARGO          CLOUDY    31  27  85 S18       29.97S FOG     WCI  19
WAHPETON ARPT  CLOUDY    32  28  86 S13       29.99R WCI  22
$$

 *****  WEATHER ACROSS CENTRAL AND WESTERN NORTH DAKOTA  *****

CITY           SKY/WX    TMP DP  RH WIND       PRES   REMARKS
JAMESTOWN      CLOUDY    30  25  81 S10       29.87F HAZE    WCI  21
BISMARCK       CLOUDY    32  27  81 CALM      29.84S
MINOT          MOSUNNY   28  25  88 E3        29.78F
MINOT AFB      PTSUNNY   26  26 100 SE6       29.78F WCI  19
GARRISON         N/A     35  29  78 SW7       29.79F
WILLISTON      SUNNY     39  30  70 SW6       29.77F
DICKINSON      SUNNY     48  30  49 W13       29.78F
HETTINGER      MOSUNNY   46  31  55 W10       29.83F
$$

 *****  OTHER OBSERVATIONS NORTHEAST NORTH DAKOTA  *****

CITY           SKY/WX    TMP DP  RH WIND       PRES   REMARKS
WALHALLA         N/A     27  27 100 S7        29.91S WCI  19
LANGDON        FOG       27  25  93 S13       29.85F VSB<1/4 WCI  16
CAVALIER       CLOUDY    27  27 100 S12       29.91F FOG     WCI  16
GRAFTON        NOT AVBL
CANDO          FOG       27  25  93 S8        29.85F VSB 1/4 WCI  18
FORT TOTTEN    NOT AVBL
ROLLA          FOG       23  23 100 MISG      29.83S VSB<1/4
RUGBY          CLOUDY    25  25 100 SE8       29.82F WCI  16
 ***** THE ABOVE OBSERVATIONS ARE NON NWS ARE NOT QUALITY
        CONTROLLED AND MAY MIS-REPORT RAIN FOR SNOW...
$$

 *****  OTHER OBSERVATIONS SOUTHEAST NORTH DAKOTA *****

CITY           SKY/WX    TMP DP  RH WIND       PRES   REMARKS
COOPERSTOWN    NOT AVBL
VALLEY CITY    FOG       27  27 100 MISG      29.91F VSB 3/4
OAKES            N/A     27  27 100 S12       29.93F FOG     WCI  16
GWINNER        CLOUDY    32  32 100 MISG      29.95S
BUFFALO        NOT AVBL
WYNDMERE         N/A     30  28  93 S8          N/A  WCI  23
 ***** THE ABOVE OBSERVATIONS ARE NON NWS ARE NOT QUALITY
       CONTROLLED AND MAY MIS-REPORT RAIN FOR SNOW...
$$

  *****  WEATHER ACROSS NORTHERN MINNESOTA  *****

CITY           SKY/WX    TMP DP  RH WIND       PRES   REMARKS
FLAG ISLAND    CLOUDY    28  27  93 S6        29.95F WCI  22
WARROAD        CLOUDY    28  25  86 S7        29.96S FOG     WCI  21
ROSEAU         CLOUDY    30  27  86 S9        29.95S FOG     WCI  22
HALLOCK        FOG       28  27  93 CALM      29.93F VSB 3/4
THF RVR FALLS  CLOUDY    30  28  93 S16       29.95F WCI  19
HALSTAD          N/A     31  28  92 S14         N/A  WCI  20
FOSSTON        CLOUDY    27  27 100 S13       29.97F FOG     WCI  16
BAUDETTE       CLOUDY    30  27  88 S8        29.97S WCI  22
WASKISH        CLOUDY    30  28  93 CALM      29.98S FOG
CROOKSTON      CLOUDY    30  28  93 S13       29.97S FOG     WCI  20
$$
  *****  WEATHER ACROSS CENTRAL AND WEST MINNESOTA  *****

CITY           SKY/WX    TMP DP  RH WIND       PRES   REMARKS
BEMIDJI        CLOUDY    28  28  96 S9        29.98S FOG     WCI  20
PARK RAPIDS    CLOUDY    30  28  92 S13       29.99S FOG     WCI  20
WADENA         CLOUDY    28  27  93 S12       30.00S FOG     WCI  18
DETROIT LAKES  CLOUDY    30  30 100 S12       29.98F FOG     WCI  21
MOORHEAD       CLOUDY    30  30 100 S12       29.98F FOG     WCI  21
FERGUS FALLS   CLOUDY    30  28  93 S14       30.01F FOG     WCI  20
ELBOW LAKE     CLOUDY    31  29  93 S14       29.99F FOG     WCI  20
MORRIS MN      SUNNY     34  30  86 S13       30.00S FOG     WCI  25
STAPLES        CLOUDY    28  27  93 S12       30.03R FOG     WCI  18
WHEATON        CLOUDY    28  27  93 S8        30.01S FOG     WCI  20
$$
  *****  WEATHER ELSEWHERE ACROSS MINNESOTA  *****

CITY           SKY/WX    TMP DP  RH WIND       PRES   REMARKS
DULUTH         CLOUDY    30  26  85 S7        30.06S FOG     WCI  23
INTRNTL FALLS  CLOUDY    30  28  92 SE5       30.00S FOG
ELY            LGT SNOW  28  27  93 S6        30.04S WCI  22
CLOQUET        CLOUDY    30  27  86 S6        30.07R FOG     WCI  24
BRAINERD       CLOUDY    29  26  89 S14       30.04F WCI  18
HIBBING        CLOUDY    30  26  85 S9        30.03S FOG     WCI  22
ALEXANDRIA     CLOUDY    30  27  88 S15       30.01F FOG     WCI  19
SAINT CLOUD    CLOUDY    32  26  78 S12       30.07S WCI  23
MINNEAPOLIS    CLOUDY    31  27  85 S6        30.12S
$$

  *****  WEATHER ACROSS SOUTH DAKOTA  *****

CITY           SKY/WX    TMP DP  RH WIND       PRES   REMARKS
SIOUX FALLS    CLOUDY    31  29  92 S12       30.01F WCI  22
BROOKINGS      NOT AVBL
WATERTOWN      CLOUDY    30  29  96 S10       29.96S FOG     WCI  21
HURON          CLOUDY    28  27  96 S8        29.97S FOG     WCI  20
SISSETON         N/A     32  30  92 SW12      29.97S WCI  23
ABERDEEN       CLOUDY    29  27  92 S15       29.93F FOG     WCI  18
MITCHELL       CLOUDY    31  30  96 S14       29.98S FOG     WCI  21
PIERRE         CLOUDY    28  25  88 SE5       29.90S WCI  23
MOBRIDGE       PTSUNNY   32  28  85 SE12      29.84F WCI  23
RAPID CITY     MOSUNNY   51  26  37 N6        29.87F
$$

  *****  SOME WEATHER IN NEARBY STATES *****

CITY           SKY/WX    TMP DP  RH WIND       PRES   REMARKS
GLASGOW MT     SUNNY     45  25  45 W12       29.77F
GREAT FALLS MT CLOUDY    42  24  49 SW17      29.76F
CHEYENNE WY    SUNNY     45  18  34 W16G29    29.94F
SCOTTSBLUFF NE SUNNY     45  29  53 SW3       29.92F
OMAHA NE       CLOUDY    34  32  92 S10       30.07F FOG
DES MOINES IA  CLOUDY    36  33  89 S7        30.12R
DAVENPORT IA   CLOUDY    33  26  75 S7        30.20R
CHICAGO IL     FLURRIES  33  24  69 S6        30.23S
EAU CLAIRE WI  CLOUDY    32  25  75 S6        30.15S
LA CROSSE WI   CLOUDY    33  27  78 S7        30.18R
$$

  *****  SOME NATIONAL WEATHER *****

CITY           SKY/WX    TMP DP  RH WIND       PRES   REMARKS
LA GUARDIA NY  CLOUDY    33  21  61 NE6       30.27R
RALEIGH NC     CLOUDY    38  33  82 CALM      30.25S FOG
ATLANTA GA     CLOUDY    51  46  83 NW3       30.15R
NEW ORLEANS LA CLOUDY    53  48  83 N13       30.10F
OKLAHOMA CITY  CLOUDY    44  37  76 S10       30.15S
ALBUQUERQUE NM MOSUNNY   43  26  51 CALM      30.10F
SALT LAKE CITY LGT RAIN  39  35  86 CALM      30.08F
LOS ANGELES CA CLOUDY    61  53  75 W7        30.14F
BOISE ID       LGT RAIN  44  37  76 SE14      29.96S
SEATTLE WA     LGT RAIN  47  44  90 SE10      29.55F FOG
$$

*** WEATHER ACROSS MANITOBA...SASKATCHEWAN AND ONTARIO ***
                ***ONTARIO***

CITY           SKY/WX    TMP DP  RH WIND       PRES   REMARKS
GERALDTON      FLURRIES  25  23  93 SE7       30.14R WCI  17
THUNDER BAY    LGT SNOW  32  30  93 S6        30.14R
SIOUX LOOKOUT  NOT AVBL
TORONTO        MOCLDY    30  21  69 SE5       30.25S
BIG TROUT LK   CLOUDY    21  21 100 SE6       30.06S WCI  14
PICKLE LAKE    FLURRIES  25  21  86 S6        30.03S WCI  18
DRYDEN         CLOUDY    27  27 100 S7        29.99S FOG     WCI  19
KENORA         NOT AVBL
$$
                *** MANITOBA***

CITY           SKY/WX    TMP DP  RH WIND       PRES   REMARKS
BRANDON        CLOUDY    23  23 100 SE9       29.84F FOG     WCI  13
DAUPHIN        CLOUDY    27  23  86 SW5       29.84F WCI  21
ISLAND LAKE    FLURRIES  23  21  93 SE6       29.97S WCI  16
PILOT MOUND      N/A     23  21  93 S1          N/A
THE PAS        NOT AVBL
THOMPSON       NOT AVBL
WINNIPEG       NOT AVBL
LYNN LAKE      CLOUDY    16  14  93 S7        29.79F WCI   6
$$
                ***SASKATCHEWAN***

CITY           SKY/WX    TMP DP  RH WIND       PRES   REMARKS
ESTEVAN        CLOUDY    30  30 100 SE6       29.74F WCI  24
KINDERSLEY     NOT AVBL
LLOYDMINSTER   NOT AVBL
PRINCE ALBERT  NOT AVBL
REGINA         NOT AVBL
YORKTON        CLOUDY    23  21  93 SE12      29.74F WCI  12
N. BATTLEFORD  CLOUDY    21  19  93 CALM      29.69F
LA RONGE       NOT AVBL


USA.gov is the U.S. government's official web portal to all federal, state and local government web resources and services.